Вернуться в каталог

THORAD AGENA D DEB

АктивенPO
NORAD 4857·DEBRIS·🇺🇸 United States

Запущен Apr 8, 1970 с Vandenberg Space Force Base

Loading…

Ближайшие Пролёты (ближайшие 24 часа)

TLE

СвежийSource: Space-Track

Эпоха: Sep 14, 2026, 05:23 UTC

1 04857U 70025EM  26257.22433975  .00001681  00000-0  66324-3 0  9995
2 04857  99.7322 173.4454 0042200 211.8569 148.0056 14.30198192835688

Отслеживайте THORAD AGENA D DEB в реальном времени с AllMySat

Download on the App Store